Location: Chervonnoye
(48.6000°N, 34.4000°E)
Time: 14:08:07
(UTC+00:00)

Cosmos 1818 - Pass Details

Date: 23 November 2020
Orbit: 773 x 800 km, 65.0° (Epoch: 27 January)

Event Time Altitude Azimuth Distance (km) Brightness Sun altitude
Rises 15:43:39 0° 318° (NW) 3,313 7.2 -17.6°
Reaches altitude 10° 15:46:08 10° 314° (NW) 2,381 6.5 -18.0°
Maximum altitude 15:51:25 51° 240° (WSW) 1,005 4.5 -18.9°
Drops below altitude 10° 15:56:40 10° 166° (SSE) 2,366 6.0 -19.7°
Sets 15:59:08 0° 161° (SSE) 3,291 6.7 -20.1°
